Year,Month,Day,Hour,Minute,Value (Times are PST for temperature in C)
2015,08,13,00,00,17.60
2015,08,13,00,01,17.60
2015,08,13,00,02,17.60
2015,08,13,00,03,17.50
2015,08,13,00,04,17.50
2015,08,13,00,05,17.40
2015,08,13,00,06,17.40
2015,08,13,00,07,17.40
2015,08,13,00,08,17.40
2015,08,13,00,09,17.30
2015,08,13,00,10,17.30
2015,08,13,00,11,17.20
2015,08,13,00,12,17.20
2015,08,13,00,13,17.10
2015,08,13,00,14,17.10
2015,08,13,00,15,17.10
2015,08,13,00,16,17.00
2015,08,13,00,17,17.00
2015,08,13,00,18,16.90
2015,08,13,00,19,16.90
2015,08,13,00,20,16.80
2015,08,13,00,21,16.80
2015,08,13,00,22,16.70
2015,08,13,00,23,16.60
2015,08,13,00,24,16.60
2015,08,13,00,25,16.50
2015,08,13,00,26,16.50
2015,08,13,00,27,16.40
2015,08,13,00,28,16.40
2015,08,13,00,29,16.30
2015,08,13,00,30,16.30
2015,08,13,00,31,16.20
2015,08,13,00,32,16.20
2015,08,13,00,33,16.10
2015,08,13,00,34,16.10
2015,08,13,00,35,16.10
2015,08,13,00,36,16.00
2015,08,13,00,37,16.00
2015,08,13,00,38,15.90
2015,08,13,00,39,15.90
2015,08,13,00,40,15.90
2015,08,13,00,41,15.80
2015,08,13,00,42,15.80
2015,08,13,00,43,15.80
2015,08,13,00,44,15.70
2015,08,13,00,45,15.70
2015,08,13,00,46,15.70
2015,08,13,00,47,15.60
2015,08,13,00,48,15.60
2015,08,13,00,49,15.60
2015,08,13,00,50,15.60
2015,08,13,00,51,15.50
2015,08,13,00,52,15.50
2015,08,13,00,53,15.50
2015,08,13,00,54,15.40
2015,08,13,00,55,15.40
2015,08,13,00,56,15.40
2015,08,13,00,57,15.40
2015,08,13,00,58,15.40
2015,08,13,00,59,15.40
2015,08,13,01,00,15.40
2015,08,13,01,01,15.30
2015,08,13,01,02,15.30
2015,08,13,01,03,15.30
2015,08,13,01,04,15.30
2015,08,13,01,05,15.20
2015,08,13,01,06,15.20
2015,08,13,01,07,15.20
2015,08,13,01,08,15.20
2015,08,13,01,09,15.10
2015,08,13,01,10,15.10
2015,08,13,01,11,15.10
2015,08,13,01,12,15.00
2015,08,13,01,13,14.90
2015,08,13,01,14,14.90
2015,08,13,01,15,14.90
2015,08,13,01,16,14.80
2015,08,13,01,17,14.80
2015,08,13,01,18,14.80
2015,08,13,01,19,14.70
2015,08,13,01,20,14.70
2015,08,13,01,21,14.70
2015,08,13,01,22,14.70
2015,08,13,01,23,14.70
2015,08,13,01,24,14.70
2015,08,13,01,25,14.70
2015,08,13,01,26,14.70
2015,08,13,01,27,14.70
2015,08,13,01,28,14.70
2015,08,13,01,29,14.60
2015,08,13,01,30,14.60
2015,08,13,01,31,14.60
2015,08,13,01,32,14.60
2015,08,13,01,33,14.60
2015,08,13,01,34,14.60
2015,08,13,01,35,14.60
2015,08,13,01,36,14.60
2015,08,13,01,37,14.70
2015,08,13,01,38,14.70
2015,08,13,01,39,14.70
2015,08,13,01,40,14.70
2015,08,13,01,41,14.70
2015,08,13,01,42,14.70
2015,08,13,01,43,14.70
2015,08,13,01,44,14.70
2015,08,13,01,45,14.70
2015,08,13,01,46,14.70
2015,08,13,01,47,14.70
2015,08,13,01,48,14.70
2015,08,13,01,49,14.70
2015,08,13,01,50,14.70
2015,08,13,01,51,14.70
2015,08,13,01,52,14.70
2015,08,13,01,53,14.70
2015,08,13,01,54,14.70
2015,08,13,01,55,14.70
2015,08,13,01,56,14.70
2015,08,13,01,57,14.70
2015,08,13,01,58,14.60
2015,08,13,01,59,14.60
2015,08,13,02,00,14.60
2015,08,13,02,01,14.60
2015,08,13,02,02,14.60
2015,08,13,02,03,14.60
2015,08,13,02,04,14.60
2015,08,13,02,05,14.60
2015,08,13,02,06,14.50
2015,08,13,02,07,14.50
2015,08,13,02,08,14.40
2015,08,13,02,09,14.30
2015,08,13,02,10,14.30
2015,08,13,02,11,14.20
2015,08,13,02,12,14.20
2015,08,13,02,13,14.10
2015,08,13,02,14,14.10
2015,08,13,02,15,14.10
2015,08,13,02,16,14.10
2015,08,13,02,17,14.00
2015,08,13,02,18,14.00
2015,08,13,02,19,14.00
2015,08,13,02,20,14.00
2015,08,13,02,21,14.00
2015,08,13,02,22,14.00
2015,08,13,02,23,13.90
2015,08,13,02,24,13.90
2015,08,13,02,25,13.90
2015,08,13,02,26,13.90
2015,08,13,02,27,13.90
2015,08,13,02,28,13.90
2015,08,13,02,29,13.90
2015,08,13,02,30,13.90
2015,08,13,02,31,13.90
2015,08,13,02,32,13.90
2015,08,13,02,33,13.80
2015,08,13,02,34,13.80
2015,08,13,02,35,13.80
2015,08,13,02,36,13.80
2015,08,13,02,37,13.80
2015,08,13,02,38,13.80
2015,08,13,02,39,13.80
2015,08,13,02,40,13.80
2015,08,13,02,41,13.80
2015,08,13,02,42,13.80
2015,08,13,02,43,13.80
2015,08,13,02,44,13.80
2015,08,13,02,45,13.80
2015,08,13,02,46,13.80
2015,08,13,02,47,13.80
2015,08,13,02,48,13.80
2015,08,13,02,49,13.80
2015,08,13,02,50,13.80
2015,08,13,02,51,13.80
2015,08,13,02,52,13.80
2015,08,13,02,53,13.80
2015,08,13,02,54,13.80
2015,08,13,02,55,13.80
2015,08,13,02,56,13.80
2015,08,13,02,57,13.80
2015,08,13,02,58,13.80
2015,08,13,02,59,13.80
2015,08,13,03,00,13.80
2015,08,13,03,01,13.80
2015,08,13,03,02,13.80
2015,08,13,03,03,13.80
2015,08,13,03,04,13.80
2015,08,13,03,05,13.80
2015,08,13,03,06,13.80
2015,08,13,03,07,13.80
2015,08,13,03,08,13.80
2015,08,13,03,09,13.80
2015,08,13,03,10,13.70
2015,08,13,03,11,13.70
2015,08,13,03,12,13.70
2015,08,13,03,13,13.60
2015,08,13,03,14,13.60
2015,08,13,03,15,13.50
2015,08,13,03,16,13.50
2015,08,13,03,17,13.50
2015,08,13,03,18,13.40
2015,08,13,03,19,13.40
2015,08,13,03,20,13.40
2015,08,13,03,21,13.40
2015,08,13,03,22,13.40
2015,08,13,03,23,13.40
2015,08,13,03,24,13.40
2015,08,13,03,25,13.40
2015,08,13,03,26,13.40
2015,08,13,03,27,13.30
2015,08,13,03,28,13.30
2015,08,13,03,29,13.30
2015,08,13,03,30,13.30
2015,08,13,03,31,13.30
2015,08,13,03,32,13.30
2015,08,13,03,33,13.30
2015,08,13,03,34,13.30
2015,08,13,03,35,13.20
2015,08,13,03,36,13.20
2015,08,13,03,37,13.20
2015,08,13,03,38,13.20
2015,08,13,03,39,13.20
2015,08,13,03,40,13.10
2015,08,13,03,41,13.10
2015,08,13,03,42,13.10
2015,08,13,03,43,13.10
2015,08,13,03,44,13.10
2015,08,13,03,45,13.10
2015,08,13,03,46,13.10
2015,08,13,03,47,13.10
2015,08,13,03,48,13.10
2015,08,13,03,49,13.10
2015,08,13,03,50,13.10
2015,08,13,03,51,13.10
2015,08,13,03,52,13.10
2015,08,13,03,53,13.10
2015,08,13,03,54,13.00
2015,08,13,03,55,13.00
2015,08,13,03,56,13.00
2015,08,13,03,57,13.00
2015,08,13,03,58,12.90
2015,08,13,03,59,12.90
2015,08,13,04,00,12.90
2015,08,13,04,01,12.90
2015,08,13,04,02,12.90
2015,08,13,04,03,12.90
2015,08,13,04,04,12.90
2015,08,13,04,05,12.90
2015,08,13,04,06,12.80
2015,08,13,04,07,12.80
2015,08,13,04,08,12.80
2015,08,13,04,09,12.80
2015,08,13,04,10,12.80
2015,08,13,04,11,12.80
2015,08,13,04,12,12.80
2015,08,13,04,13,12.80
2015,08,13,04,14,12.80
2015,08,13,04,15,12.80
2015,08,13,04,16,12.70
2015,08,13,04,17,12.70
2015,08,13,04,18,12.70
2015,08,13,04,19,12.70
2015,08,13,04,20,12.60
2015,08,13,04,21,12.60
2015,08,13,04,22,12.60
2015,08,13,04,23,12.60
2015,08,13,04,24,12.60
2015,08,13,04,25,12.60
2015,08,13,04,26,12.60
2015,08,13,04,27,12.60
2015,08,13,04,28,12.70
2015,08,13,04,29,12.70
2015,08,13,04,30,12.70
2015,08,13,04,31,12.70
2015,08,13,04,32,12.70
2015,08,13,04,33,12.70
2015,08,13,04,34,12.70
2015,08,13,04,35,12.70
2015,08,13,04,36,12.80
2015,08,13,04,37,12.80
2015,08,13,04,38,12.80
2015,08,13,04,39,12.80
2015,08,13,04,40,12.80
2015,08,13,04,41,12.80
2015,08,13,04,42,12.90
2015,08,13,04,43,12.90
2015,08,13,04,44,12.90
2015,08,13,04,45,12.90
2015,08,13,04,46,12.90
2015,08,13,04,47,12.90
2015,08,13,04,48,12.90
2015,08,13,04,49,12.90
2015,08,13,04,50,12.80
2015,08,13,04,51,12.80
2015,08,13,04,52,12.80
2015,08,13,04,53,12.80
2015,08,13,04,54,12.80
2015,08,13,04,55,12.80
2015,08,13,04,56,12.90
2015,08,13,04,57,12.90
2015,08,13,04,58,13.00
2015,08,13,04,59,13.00
2015,08,13,05,00,13.00
2015,08,13,05,01,13.00
2015,08,13,05,02,13.00
2015,08,13,05,03,13.00
2015,08,13,05,04,13.00
2015,08,13,05,05,13.00
2015,08,13,05,06,12.90
2015,08,13,05,07,12.90
2015,08,13,05,08,12.80
2015,08,13,05,09,12.80
2015,08,13,05,10,12.70
2015,08,13,05,11,12.60
2015,08,13,05,12,12.50
2015,08,13,05,13,12.50
2015,08,13,05,14,12.40
2015,08,13,05,15,12.40
2015,08,13,05,16,12.30
2015,08,13,05,17,12.30
2015,08,13,05,18,12.30
2015,08,13,05,19,12.20
2015,08,13,05,20,12.20
2015,08,13,05,21,12.20
2015,08,13,05,22,12.20
2015,08,13,05,23,12.20
2015,08,13,05,24,12.20
2015,08,13,05,25,12.20
2015,08,13,05,26,12.20
2015,08,13,05,27,12.20
2015,08,13,05,28,12.20
2015,08,13,05,29,12.20
2015,08,13,05,30,12.20
2015,08,13,05,31,12.20
2015,08,13,05,32,12.20
2015,08,13,05,33,12.10
2015,08,13,05,34,12.10
2015,08,13,05,35,12.10
2015,08,13,05,36,12.10
2015,08,13,05,37,12.10
2015,08,13,05,38,12.10
2015,08,13,05,39,12.10
2015,08,13,05,40,12.00
2015,08,13,05,41,12.00
2015,08,13,05,42,11.90
2015,08,13,05,43,11.90
2015,08,13,05,44,11.90
2015,08,13,05,45,11.90
2015,08,13,05,46,11.90
2015,08,13,05,47,11.90
2015,08,13,05,48,11.90
2015,08,13,05,49,11.90
2015,08,13,05,50,11.90
2015,08,13,05,51,11.90
2015,08,13,05,52,12.00
2015,08,13,05,53,12.00
2015,08,13,05,54,12.00
2015,08,13,05,55,12.00
2015,08,13,05,56,12.10
2015,08,13,05,57,12.10
2015,08,13,05,58,12.10
2015,08,13,05,59,12.10
2015,08,13,06,00,12.10
2015,08,13,06,01,12.10
2015,08,13,06,02,12.10
2015,08,13,06,03,12.10
2015,08,13,06,04,12.10
2015,08,13,06,05,12.10
2015,08,13,06,06,12.10
2015,08,13,06,07,12.10
2015,08,13,06,08,12.10
2015,08,13,06,09,12.10
2015,08,13,06,10,12.10
2015,08,13,06,11,12.10
2015,08,13,06,12,12.10
2015,08,13,06,13,12.10
2015,08,13,06,14,12.20
2015,08,13,06,15,12.20
2015,08,13,06,16,12.20
2015,08,13,06,17,12.20
2015,08,13,06,18,12.10
2015,08,13,06,19,12.10
2015,08,13,06,20,12.10
2015,08,13,06,21,12.10
2015,08,13,06,22,12.10
2015,08,13,06,23,12.10
2015,08,13,06,24,12.10
2015,08,13,06,25,12.10
2015,08,13,06,26,12.10
2015,08,13,06,27,12.00
2015,08,13,06,28,12.00
2015,08,13,06,29,12.00
2015,08,13,06,30,12.00
2015,08,13,06,31,11.90
2015,08,13,06,32,11.90
2015,08,13,06,33,11.90
2015,08,13,06,34,11.90
2015,08,13,06,35,11.90
2015,08,13,06,36,11.90
2015,08,13,06,37,11.90
2015,08,13,06,38,11.90
2015,08,13,06,39,11.90
2015,08,13,06,40,11.90
2015,08,13,06,41,11.80
2015,08,13,06,42,11.90
2015,08,13,06,43,11.90
2015,08,13,06,44,11.90
2015,08,13,06,45,11.90
2015,08,13,06,46,11.90
2015,08,13,06,47,11.90
2015,08,13,06,48,12.00
2015,08,13,06,49,12.00
2015,08,13,06,50,12.10
2015,08,13,06,51,12.10
2015,08,13,06,52,12.10
2015,08,13,06,53,12.10
2015,08,13,06,54,12.20
2015,08,13,06,55,12.20
2015,08,13,06,56,12.20
2015,08,13,06,57,12.20
2015,08,13,06,58,12.30
2015,08,13,06,59,12.30
2015,08,13,07,00,12.30
2015,08,13,07,01,12.40
2015,08,13,07,02,12.40
2015,08,13,07,03,12.40
2015,08,13,07,04,12.40
2015,08,13,07,05,12.40
2015,08,13,07,06,12.40
2015,08,13,07,07,12.50
2015,08,13,07,08,12.50
2015,08,13,07,09,12.60
2015,08,13,07,10,12.60
2015,08,13,07,11,12.60
2015,08,13,07,12,12.60
2015,08,13,07,13,12.60
2015,08,13,07,14,12.60
2015,08,13,07,15,12.60
2015,08,13,07,16,12.60
2015,08,13,07,17,12.70
2015,08,13,07,18,12.70
2015,08,13,07,19,12.80
2015,08,13,07,20,12.80
2015,08,13,07,21,12.90
2015,08,13,07,22,12.90
2015,08,13,07,23,12.90
2015,08,13,07,24,13.00
2015,08,13,07,25,13.00
2015,08,13,07,26,13.00
2015,08,13,07,27,13.10
2015,08,13,07,28,13.10
2015,08,13,07,29,13.10
2015,08,13,07,30,13.10
2015,08,13,07,31,13.20
2015,08,13,07,32,13.20
2015,08,13,07,33,13.20
2015,08,13,07,34,13.30
2015,08,13,07,35,13.30
2015,08,13,07,36,13.30
2015,08,13,07,37,13.40
2015,08,13,07,38,13.40
2015,08,13,07,39,13.50
2015,08,13,07,40,13.50
2015,08,13,07,41,13.60
2015,08,13,07,42,13.60
2015,08,13,07,43,13.70
2015,08,13,07,44,13.70
2015,08,13,07,45,13.70
2015,08,13,07,46,13.80
2015,08,13,07,47,13.90
2015,08,13,07,48,13.90
2015,08,13,07,49,14.00
2015,08,13,07,50,14.10
2015,08,13,07,51,14.10
2015,08,13,07,52,14.20
2015,08,13,07,53,14.30
2015,08,13,07,54,14.30
2015,08,13,07,55,14.40
2015,08,13,07,56,14.40
2015,08,13,07,57,14.50
2015,08,13,07,58,14.50
2015,08,13,07,59,14.60
2015,08,13,08,00,14.70
2015,08,13,08,01,14.70
2015,08,13,08,02,14.80
2015,08,13,08,03,14.80
2015,08,13,08,04,14.90
2015,08,13,08,05,14.90
2015,08,13,08,06,15.00
2015,08,13,08,07,15.00
2015,08,13,08,08,15.10
2015,08,13,08,09,15.10
2015,08,13,08,10,15.10
2015,08,13,08,11,15.20
2015,08,13,08,12,15.20
2015,08,13,08,13,15.30
2015,08,13,08,14,15.30
2015,08,13,08,15,15.30
2015,08,13,08,16,15.40
2015,08,13,08,17,15.40
2015,08,13,08,18,15.50
2015,08,13,08,19,15.60
2015,08,13,08,20,15.60
2015,08,13,08,21,15.70
2015,08,13,08,22,15.80
2015,08,13,08,23,15.80
2015,08,13,08,24,15.90
2015,08,13,08,25,15.90
2015,08,13,08,26,16.00
2015,08,13,08,27,16.10
2015,08,13,08,28,16.10
2015,08,13,08,29,16.20
2015,08,13,08,30,16.30
2015,08,13,08,31,16.30
2015,08,13,08,32,16.40
2015,08,13,08,33,16.50
2015,08,13,08,34,16.50
2015,08,13,08,35,16.70
2015,08,13,08,36,16.70
2015,08,13,08,37,16.80
2015,08,13,08,38,17.00
2015,08,13,08,39,17.10
2015,08,13,08,40,17.20
2015,08,13,08,41,17.30
2015,08,13,08,42,17.40
2015,08,13,08,43,17.40
2015,08,13,08,44,17.50
2015,08,13,08,45,17.60
2015,08,13,08,46,17.70
2015,08,13,08,47,17.70
2015,08,13,08,48,17.80
2015,08,13,08,49,17.90
2015,08,13,08,50,18.00
2015,08,13,08,51,18.00
2015,08,13,08,52,18.10
2015,08,13,08,53,18.10
2015,08,13,08,54,18.10
2015,08,13,08,55,18.10
2015,08,13,08,56,18.20
2015,08,13,08,57,18.20
2015,08,13,08,58,18.30
2015,08,13,08,59,18.30
2015,08,13,09,00,18.30
2015,08,13,09,01,18.40
2015,08,13,09,02,18.40
2015,08,13,09,03,18.50
2015,08,13,09,04,18.50
2015,08,13,09,05,18.60
2015,08,13,09,06,18.70
2015,08,13,09,07,18.70
2015,08,13,09,08,18.80
2015,08,13,09,09,18.90
2015,08,13,09,10,18.90
2015,08,13,09,11,19.00
2015,08,13,09,12,19.10
2015,08,13,09,13,19.20
2015,08,13,09,14,19.20
2015,08,13,09,15,19.30
2015,08,13,09,16,19.40
2015,08,13,09,17,19.50
2015,08,13,09,18,19.60
2015,08,13,09,19,19.70
2015,08,13,09,20,19.80
2015,08,13,09,21,19.80
2015,08,13,09,22,19.90
2015,08,13,09,23,20.00
2015,08,13,09,24,20.10
2015,08,13,09,25,20.20
2015,08,13,09,26,20.20
2015,08,13,09,27,20.30
2015,08,13,09,28,20.30
2015,08,13,09,29,20.40
2015,08,13,09,30,20.40
2015,08,13,09,31,20.50
2015,08,13,09,32,20.60
2015,08,13,09,33,20.60
2015,08,13,09,34,20.70
2015,08,13,09,35,20.70
2015,08,13,09,36,20.80
2015,08,13,09,37,20.80
2015,08,13,09,38,20.90
2015,08,13,09,39,21.00
2015,08,13,09,40,21.00
2015,08,13,09,41,21.10
2015,08,13,09,42,21.10
2015,08,13,09,43,21.10
2015,08,13,09,44,21.10
2015,08,13,09,45,21.00
2015,08,13,09,46,21.00
2015,08,13,09,47,21.00
2015,08,13,09,48,21.00
2015,08,13,09,49,21.10
2015,08,13,09,50,21.10
2015,08,13,09,51,21.10
2015,08,13,09,52,21.10
2015,08,13,09,53,21.10
2015,08,13,09,54,21.20
2015,08,13,09,55,21.20
2015,08,13,09,56,21.30
2015,08,13,09,57,21.40
2015,08,13,09,58,21.40
2015,08,13,09,59,21.40
2015,08,13,10,00,21.50
2015,08,13,10,01,21.50
2015,08,13,10,02,21.60
2015,08,13,10,03,21.60
2015,08,13,10,04,21.60
2015,08,13,10,05,21.70
2015,08,13,10,06,21.70
2015,08,13,10,07,21.80
2015,08,13,10,08,21.70
2015,08,13,10,09,21.70
2015,08,13,10,10,21.80
2015,08,13,10,11,21.80
2015,08,13,10,12,21.80
2015,08,13,10,13,21.80
2015,08,13,10,14,21.80
2015,08,13,10,15,21.80
2015,08,13,10,16,21.80
2015,08,13,10,17,21.90
2015,08,13,10,18,21.90
2015,08,13,10,19,22.00
2015,08,13,10,20,22.00
2015,08,13,10,21,22.00
2015,08,13,10,22,22.10
2015,08,13,10,23,22.10
2015,08,13,10,24,22.20
2015,08,13,10,25,22.30
2015,08,13,10,26,22.40
2015,08,13,10,27,22.50
2015,08,13,10,28,22.60
2015,08,13,10,29,22.70
2015,08,13,10,30,22.80
2015,08,13,10,31,22.90
2015,08,13,10,32,22.90
2015,08,13,10,33,22.80
2015,08,13,10,34,22.80
2015,08,13,10,35,22.70
2015,08,13,10,36,22.70
2015,08,13,10,37,22.60
2015,08,13,10,38,22.60
2015,08,13,10,39,22.50
2015,08,13,10,40,22.40
2015,08,13,10,41,22.40
2015,08,13,10,42,22.40
2015,08,13,10,43,22.40
2015,08,13,10,44,22.40
2015,08,13,10,45,22.40
2015,08,13,10,46,22.30
2015,08,13,10,47,22.30
2015,08,13,10,48,22.30
2015,08,13,10,49,22.30
2015,08,13,10,50,22.30
2015,08,13,10,51,22.40
2015,08,13,10,52,22.40
2015,08,13,10,53,22.50
2015,08,13,10,54,22.50
2015,08,13,10,55,22.60
2015,08,13,10,56,22.60
2015,08,13,10,57,22.60
2015,08,13,10,58,22.60
2015,08,13,10,59,22.60
2015,08,13,11,00,22.60
2015,08,13,11,01,22.50
2015,08,13,11,02,22.50
2015,08,13,11,03,22.60
2015,08,13,11,04,22.60
2015,08,13,11,05,22.70
2015,08,13,11,06,22.80
2015,08,13,11,07,22.90
2015,08,13,11,08,23.00
2015,08,13,11,09,23.10
2015,08,13,11,10,23.20
2015,08,13,11,11,23.30
2015,08,13,11,12,23.30
2015,08,13,11,13,23.40
2015,08,13,11,14,23.40
2015,08,13,11,15,23.40
2015,08,13,11,16,23.50
2015,08,13,11,17,23.60
2015,08,13,11,18,23.60
2015,08,13,11,19,23.60
2015,08,13,11,20,23.60
2015,08,13,11,21,23.60
2015,08,13,11,22,23.70
2015,08,13,11,23,23.70
2015,08,13,11,24,23.70
2015,08,13,11,25,23.70
2015,08,13,11,26,23.70
2015,08,13,11,27,23.70
2015,08,13,11,28,23.70
2015,08,13,11,29,23.80
2015,08,13,11,30,23.80
2015,08,13,11,31,23.90
2015,08,13,11,32,23.90
2015,08,13,11,33,24.00
2015,08,13,11,34,24.10
2015,08,13,11,35,24.20
2015,08,13,11,36,24.30
2015,08,13,11,37,24.30
2015,08,13,11,38,24.40
2015,08,13,11,39,24.50
2015,08,13,11,40,24.50
2015,08,13,11,41,24.60
2015,08,13,11,42,24.50
2015,08,13,11,43,24.40
2015,08,13,11,44,24.40
2015,08,13,11,45,24.30
2015,08,13,11,46,24.20
2015,08,13,11,47,24.20
2015,08,13,11,48,24.10
2015,08,13,11,49,24.10
2015,08,13,11,50,24.10
2015,08,13,11,51,24.10
2015,08,13,11,52,24.10
2015,08,13,11,53,24.10
2015,08,13,11,54,24.10
2015,08,13,11,55,24.10
2015,08,13,11,56,24.10
2015,08,13,11,57,24.10
2015,08,13,11,58,24.00
2015,08,13,11,59,24.00
2015,08,13,12,00,24.00
2015,08,13,12,01,24.00
2015,08,13,12,02,24.00
2015,08,13,12,03,24.10
2015,08,13,12,04,24.10
2015,08,13,12,05,24.20
2015,08,13,12,06,24.20
2015,08,13,12,07,24.20
2015,08,13,12,08,24.30
2015,08,13,12,09,24.30
2015,08,13,12,10,24.30
2015,08,13,12,11,24.30
2015,08,13,12,12,24.30
2015,08,13,12,13,24.30
2015,08,13,12,14,24.40
2015,08,13,12,15,24.50
2015,08,13,12,16,24.50
2015,08,13,12,17,24.40
2015,08,13,12,18,24.40
2015,08,13,12,19,24.40
2015,08,13,12,20,24.50
2015,08,13,12,21,24.50
2015,08,13,12,22,24.50
2015,08,13,12,23,24.60
2015,08,13,12,24,24.60
2015,08,13,12,25,24.60
2015,08,13,12,26,24.60
2015,08,13,12,27,24.60
2015,08,13,12,28,24.70
2015,08,13,12,29,24.70
2015,08,13,12,30,24.70
2015,08,13,12,31,24.70
2015,08,13,12,32,24.70
2015,08,13,12,33,24.60
2015,08,13,12,34,24.50
2015,08,13,12,35,24.50
2015,08,13,12,36,24.60
2015,08,13,12,37,24.70
2015,08,13,12,38,24.60
2015,08,13,12,39,24.60
2015,08,13,12,40,24.60
2015,08,13,12,41,24.60
2015,08,13,12,42,24.60
2015,08,13,12,43,24.60
2015,08,13,12,44,24.70
2015,08,13,12,45,24.60
2015,08,13,12,46,24.60
2015,08,13,12,47,24.60
2015,08,13,12,48,24.60
2015,08,13,12,49,24.60
2015,08,13,12,50,24.60
2015,08,13,12,51,24.60
2015,08,13,12,52,24.60
2015,08,13,12,53,24.60
2015,08,13,12,54,24.60
2015,08,13,12,55,24.60
2015,08,13,12,56,24.50
2015,08,13,12,57,24.40
2015,08,13,12,58,24.50
2015,08,13,12,59,24.50
2015,08,13,13,00,24.50
2015,08,13,13,01,24.50
2015,08,13,13,02,24.60
2015,08,13,13,03,24.60
2015,08,13,13,04,24.60
2015,08,13,13,05,24.60
2015,08,13,13,06,24.60
2015,08,13,13,07,24.60
2015,08,13,13,08,24.60
2015,08,13,13,09,24.60
2015,08,13,13,10,24.50
2015,08,13,13,11,24.50
2015,08,13,13,12,24.50
2015,08,13,13,13,24.50
2015,08,13,13,14,24.50
2015,08,13,13,15,24.40
2015,08,13,13,16,24.40
2015,08,13,13,17,24.40
2015,08,13,13,18,24.40
2015,08,13,13,19,24.40
2015,08,13,13,20,24.30
2015,08,13,13,21,24.20
2015,08,13,13,22,24.20
2015,08,13,13,23,24.20
2015,08,13,13,24,24.20
2015,08,13,13,25,24.20
2015,08,13,13,26,24.20
2015,08,13,13,27,24.30
2015,08,13,13,28,24.30
2015,08,13,13,29,24.40
2015,08,13,13,30,24.50
2015,08,13,13,31,24.40
2015,08,13,13,32,24.40
2015,08,13,13,33,24.50
2015,08,13,13,34,24.60
2015,08,13,13,35,24.60
2015,08,13,13,36,24.70
2015,08,13,13,37,24.70
2015,08,13,13,38,24.80
2015,08,13,13,39,24.80
2015,08,13,13,40,24.80
2015,08,13,13,41,24.90
2015,08,13,13,42,24.90
2015,08,13,13,43,25.00
2015,08,13,13,44,25.00
2015,08,13,13,45,25.20
2015,08,13,13,46,25.20
2015,08,13,13,47,25.20
2015,08,13,13,48,25.20
2015,08,13,13,49,25.20
2015,08,13,13,50,25.20
2015,08,13,13,51,25.20
2015,08,13,13,52,25.20
2015,08,13,13,53,25.20
2015,08,13,13,54,25.20
2015,08,13,13,55,25.30
2015,08,13,13,56,25.20
2015,08,13,13,57,25.20
2015,08,13,13,58,25.20
2015,08,13,13,59,25.30
2015,08,13,14,00,25.40
2015,08,13,14,01,25.50
2015,08,13,14,02,25.50
2015,08,13,14,03,25.60
2015,08,13,14,04,25.60
2015,08,13,14,05,25.60
2015,08,13,14,06,25.60
2015,08,13,14,07,25.60
2015,08,13,14,08,25.50
2015,08,13,14,09,25.50
2015,08,13,14,10,25.50
2015,08,13,14,11,25.50
2015,08,13,14,12,25.60
2015,08,13,14,13,25.60
2015,08,13,14,14,25.70
2015,08,13,14,15,25.70
2015,08,13,14,16,25.70
2015,08,13,14,17,25.70
2015,08,13,14,18,25.70
2015,08,13,14,19,25.70
2015,08,13,14,20,25.70
2015,08,13,14,21,25.80
2015,08,13,14,22,25.90
2015,08,13,14,23,25.90
2015,08,13,14,24,26.00
2015,08,13,14,25,26.00
2015,08,13,14,26,26.10
2015,08,13,14,27,26.10
2015,08,13,14,28,26.10
2015,08,13,14,29,26.10
2015,08,13,14,30,26.00
2015,08,13,14,31,26.00
2015,08,13,14,32,26.00
2015,08,13,14,33,26.00
2015,08,13,14,34,26.00
2015,08,13,14,35,26.00
2015,08,13,14,36,26.00
2015,08,13,14,37,26.10
2015,08,13,14,38,26.10
2015,08,13,14,39,26.20
2015,08,13,14,40,26.30
2015,08,13,14,41,26.30
2015,08,13,14,42,26.20
2015,08,13,14,43,26.20
2015,08,13,14,44,26.20
2015,08,13,14,45,26.20
2015,08,13,14,46,26.20
2015,08,13,14,47,26.20
2015,08,13,14,48,26.20
2015,08,13,14,49,26.20
2015,08,13,14,50,26.10
2015,08,13,14,51,26.10
2015,08,13,14,52,26.10
2015,08,13,14,53,26.10
2015,08,13,14,54,26.10
2015,08,13,14,55,26.20
2015,08,13,14,56,26.30
2015,08,13,14,57,26.40
2015,08,13,14,58,26.40
2015,08,13,14,59,26.40
2015,08,13,15,00,26.40
2015,08,13,15,01,26.40
2015,08,13,15,02,26.40
2015,08,13,15,03,26.40
2015,08,13,15,04,26.40
2015,08,13,15,05,26.50
2015,08,13,15,06,26.50
2015,08,13,15,07,26.50
2015,08,13,15,08,26.50
2015,08,13,15,09,26.40
2015,08,13,15,10,26.50
2015,08,13,15,11,26.60
2015,08,13,15,12,26.60
2015,08,13,15,13,26.50
2015,08,13,15,14,26.50
2015,08,13,15,15,26.50
2015,08,13,15,16,26.50
2015,08,13,15,17,26.40
2015,08,13,15,18,26.30
2015,08,13,15,19,26.30
2015,08,13,15,20,26.30
2015,08,13,15,21,26.30
2015,08,13,15,22,26.30
2015,08,13,15,23,26.30
2015,08,13,15,24,26.30
2015,08,13,15,25,26.30
2015,08,13,15,26,26.40
2015,08,13,15,27,26.50
2015,08,13,15,28,26.50
2015,08,13,15,29,26.50
2015,08,13,15,30,26.50
2015,08,13,15,31,26.50
2015,08,13,15,32,26.50
2015,08,13,15,33,26.50
2015,08,13,15,34,26.40
2015,08,13,15,35,26.40
2015,08,13,15,36,26.40
2015,08,13,15,37,26.50
2015,08,13,15,38,26.40
2015,08,13,15,39,26.40
2015,08,13,15,40,26.40
2015,08,13,15,41,26.40
2015,08,13,15,42,26.40
2015,08,13,15,43,26.40
2015,08,13,15,44,26.40
2015,08,13,15,45,26.50
2015,08,13,15,46,26.50
2015,08,13,15,47,26.60
2015,08,13,15,48,26.60
2015,08,13,15,49,26.60
2015,08,13,15,50,26.50
2015,08,13,15,51,26.40
2015,08,13,15,52,26.40
2015,08,13,15,53,26.30
2015,08,13,15,54,26.20
2015,08,13,15,55,26.20
2015,08,13,15,56,26.20
2015,08,13,15,57,26.20
2015,08,13,15,58,26.20
2015,08,13,15,59,26.30
2015,08,13,16,00,26.30
2015,08,13,16,01,26.30
2015,08,13,16,02,26.40
2015,08,13,16,03,26.40
2015,08,13,16,04,26.30
2015,08,13,16,05,26.20
2015,08,13,16,06,26.20
2015,08,13,16,07,26.20
2015,08,13,16,08,26.20
2015,08,13,16,09,26.20
2015,08,13,16,10,26.20
2015,08,13,16,11,26.20
2015,08,13,16,12,26.20
2015,08,13,16,13,26.10
2015,08,13,16,14,26.10
2015,08,13,16,15,26.10
2015,08,13,16,16,26.00
2015,08,13,16,17,26.00
2015,08,13,16,18,26.00
2015,08,13,16,19,26.10
2015,08,13,16,20,26.10
2015,08,13,16,21,26.20
2015,08,13,16,22,26.20
2015,08,13,16,23,26.30
2015,08,13,16,24,26.40
2015,08,13,16,25,26.50
2015,08,13,16,26,26.60
2015,08,13,16,27,26.60
2015,08,13,16,28,26.60
2015,08,13,16,29,26.60
2015,08,13,16,30,26.60
2015,08,13,16,31,26.70
2015,08,13,16,32,26.70
2015,08,13,16,33,26.80
2015,08,13,16,34,26.80
2015,08,13,16,35,26.80
2015,08,13,16,36,26.90
2015,08,13,16,37,26.90
2015,08,13,16,38,27.00
2015,08,13,16,39,27.10
2015,08,13,16,40,27.20
2015,08,13,16,41,27.20
2015,08,13,16,42,27.20
2015,08,13,16,43,27.20
2015,08,13,16,44,27.20
2015,08,13,16,45,27.20
2015,08,13,16,46,27.30
2015,08,13,16,47,27.40
2015,08,13,16,48,27.40
2015,08,13,16,49,27.40
2015,08,13,16,50,27.50
2015,08,13,16,51,27.50
2015,08,13,16,52,27.50
2015,08,13,16,53,27.50
2015,08,13,16,54,27.50
2015,08,13,16,55,27.40
2015,08,13,16,56,27.50
2015,08,13,16,57,27.50
2015,08,13,16,58,27.60
2015,08,13,16,59,27.70
2015,08,13,17,00,27.80
2015,08,13,17,01,27.80
2015,08,13,17,02,27.90
2015,08,13,17,03,27.90
2015,08,13,17,04,27.90
2015,08,13,17,05,27.90
2015,08,13,17,06,27.90
2015,08,13,17,07,27.90
2015,08,13,17,08,27.80
2015,08,13,17,09,27.80
2015,08,13,17,10,27.80
2015,08,13,17,11,27.80
2015,08,13,17,12,27.70
2015,08,13,17,13,27.70
2015,08,13,17,14,27.70
2015,08,13,17,15,27.60
2015,08,13,17,16,27.60
2015,08,13,17,17,27.60
2015,08,13,17,18,27.50
2015,08,13,17,19,27.50